{"data":{"norad_id":65071,"intl_designator":"2025-165R","name":"STARLINK-34805","alt_names":[],"object_type":"PAYLOAD","status":"ACTIVE","operator":null,"country":"US","launch_date":"2025-07-31","launch_site_code":"AFWTR","launch_vehicle":null,"mission":null,"orbit_class":"UNKNOWN","rcs_meters":null,"size_class":null,"mass_kg":null,"dimensions":null,"purposes":["comms"],"wikipedia_slug":null,"has_3d_model":false,"image_url":null,"decayed_at":null,"tle_current":{"epoch":"2026-09-20T12:11:16.993248Z","epoch_age_seconds":119500,"freshness":"FRESH","line1":"1 65071U 25165R   26263.50783557  .00021160  00000+0  65585-3 0  9998","line2":"2 65071  97.2848 334.6830 0001402  90.4770 269.6633 15.33447806 64129","mean_motion":15.33447806,"eccentricity":0.0001402,"inclination_deg":97.2848,"raan_deg":334.683,"arg_perigee_deg":90.477,"mean_anomaly_deg":269.6633,"bstar":0.00065585,"rev_number":6412,"period_min":93.906032821309,"perigee_km":464.57534301907,"apogee_km":466.49430859903,"semimajor_km":6843.6718258091,"source":"CELESTRAK","updated_at":"2026-09-21T09:00:35.501170Z"}}}